Regional Weather Roundup
Issued by NWS

Home | Current Version | Previous Version | Text Only | Print | Product List | Glossary Off
Versions: 1 2 3 4 5 6 7 8 9 10 11 12 13 14 15 16 17 18 19 20 21 22 23 24 25 26 27 28 29 30 31 32 33 34 35 36 37 38 39 40 41 42 43 44 45 46 47 48 49 50

000
ASUS43 KBIS 020010
RWRND

NORTH DAKOTA REGIONAL WEATHER ROUNDUP
NATIONAL WEATHER SERVICE BISMARCK ND
700 PM CDT SAT AUG 01 2015

NOTE: "FAIR" INDICATES FEW OR NO CLOUDS BELOW 12,000 FEET WITH NO
SIGNIFICANT WEATHER AND/OR OBSTRUCTIONS TO VISIBILITY.


NDZ001>003-009>011-017-020100-
NORTHWEST NORTH DAKOTA

CITY           SKY/WX    TMP DP  RH WIND       PRES   REMARKS
WILLISTON      SUNNY     97  34  11 NW21G32   29.73R HX  91
6HR MIN TEMP:  86; 6HR MAX TEMP: 100;

MINOT          SUNNY     88  51  28 S12       29.71F
MINOT AFB      SUNNY     88  56  33 S8        29.70F
$$

NDZ018>021-031>035-040>046-020100-
SOUTHWEST NORTH DAKOTA

CITY           SKY/WX    TMP DP  RH WIND       PRES   REMARKS
BISMARCK       SUNNY     90  55  30 SW5       29.78F
6HR MIN TEMP:  84; 6HR MAX TEMP:  92;

DICKINSON      SUNNY     92  40  16 W13       29.77F
GARRISON         N/A     82  60  47 SE7       29.75F
6HR MIN TEMP:  80; 6HR MAX TEMP:  85;

HETTINGER ARPT SUNNY     93  36  13 SW7       29.84F
$$

NDZ004>008-012>016-024-026-027-054-020100-
NORTHEAST NORTH DAKOTA

CITY           SKY/WX    TMP DP  RH WIND       PRES   REMARKS
GRAND FORKS    MOSUNNY   84  61  45 S8        29.71F
GRND FRKS AFB  SUNNY     84  63  49 SW9       29.72F
DEVILS LAKE    SUNNY     86  54  32 S6        29.74F
$$

NDZ022-023-025-028>030-036>039-047>053-020100-
SOUTHEAST NORTH DAKOTA

CITY           SKY/WX    TMP DP  RH WIND       PRES   REMARKS
FARGO          SUNNY     85  63  47 S6        29.73F
6HR MIN TEMP:  81; 6HR MAX TEMP:  89;

JAMESTOWN      SUNNY     85  64  49 S3        29.75F
$$




USA.gov is the U.S. government's official web portal to all federal, state and local government web resources and services.